CAPE
0 0 0 1249 1535 1155 1522 1601 1920 2156 2156 1951 1862 1764 1711 1232 1548 1343 1849 1810 1548 1303 1004 1174 989 846 760 784 790 778 840 658
0 0 0 443 1757 1499 1374 1600 1711 2060 1967 1930 1839 1692 1713 1605 1374 1599 1674 1837 1811 1588 1530 1187 1501 737 765 990 922 1084 827 1016
0 0 0 332 1864 1997 1362 1673 1693 1934 1936 2027 1804 1633 1551 1546 1555 1585 1651 1972 1801 1819 1573 1482 1266 959 952 1157 986 971 968 1044
0 0 3 238 2164 2182 1120 1627 1777 1782 1860 1949 1805 1622 1584 1615 1733 1633 1750 1764 1870 1726 1832 1605 1468 1215 1034 1044 1217 958 893 1131
0 0 0 112 1119 1855 1882 1271 1780 1742 1713 1681 1691 1643 1546 1722 1725 1783 1709 1713 1683 1784 1806 1920 1649 1382 1208 1240 1199 1098 1204 1121
0 0 0 50 12 132 1292 1481 1523 2090 1718 1859 1801 1875 1855 2005 2121 2144 1956 1913 1720 1756 1820 1971 1773 1695 1380 1414 1237 1421 1226 1163
0 0 0 0 2 29 105 108 593 1183 1833 2647 2576 2772 2627 2457 2465 2537 2443 2251 2049 1934 1987 1951 1983 1690 1699 1458 1444 1332 1297 1257
0 0 0 0 0 0 68 111 29 20 49 807 2969 2790 2683 2510 2340 2469 2583 2586 2493 2196 2122 2085 2014 1822 1799 1622 1630 1388 1435 1391
0 0 0 0 0 0 35 0 3 48 140 50 48 2332 2689 2518 2186 2067 1815 2610 2712 2645 2374 2228 2116 2032 1790 1816 1551 1702 1588 1552
0 0 0 0 0 0 0 0 0 0 18 41 157 62 1075 2081 2161 2535 2075 2559 2343 2492 2501 2345 2222 2048 1942 1850 1827 1670 1788 1701
0 0 0 0 0 0 4 23 5 0 0 24 678 451 201 1373 2130 2152 2207 2110 2552 2377 2501 2393 2272 2112 2001 1982 1843 1871 1918 1819
0 0 0 0 0 0 0 4 53 180 336 93 38 631 1935 2113 1912 1935 2166 1966 2034 2359 2437 2426 2337 2147 2072 2007 1992 2001 2065 1867
0 0 0 0 0 0 0 0 0 12 90 260 793 724 708 998 2201 2291 2454 2379 2535 2546 2390 2257 2131 2175 2172 2077 2036 2130 2099 1738
0 0 0 0 0 0 0 0 0 0 0 4 186 1108 959 749 636 1431 2332 2457 2425 2724 2563 2357 2328 2006 1722 2160 2171 2158 1929 1644
0 0 0 0 0 0 0 0 0 0 0 0 1 140 746 1225 1320 1319 1810 2516 2474 2362 2346 2199 2018 1875 1844 1911 2109 2101 2243 2177
0 0 0 0 0 0 0 0 0 0 0 0 0 0 33 57 918 1154 1236 1798 2278 2057 2392 1914 1750 1615 1553 1646 1753 2044 1910 1972
0 0 0 0 0 0 0 0 0 0 0 0 0 0 0 0 0 0 418 702 1028 1361 1489 1526 1404 1418 1451 1478 1288 1235 1681 2034
0 0 0 0 0 0 0 0 0 0 0 0 0 0 0 0 0 0 0 101 205 557 1022 977 1052 1131 1111 1021 1133 971 1465 1623
0 0 0 0 0 0 0 0 0 0 0 0 0 0 0 0 0 0 0 0 54 269 291 695 700 646 581 662 897 832 1063 1211
CIN
0 0 0 -8 -9 -63 -155 -234 -170 -148 -140 -132 -110 -122 -120 -163 -115 -140 -87 -91 -106 -82 -94 -52 -63 -43 -54 -45 -24 -22 -8 -22
0 0 0 -73 -22 -42 -122 -197 -211 -134 -133 -146 -126 -168 -147 -137 -157 -120 -108 -106 -97 -101 -71 -89 -44 -115 -91 -44 -37 -8 -29 -26
0 0 0 -99 -24 -31 -88 -133 -230 -166 -138 -141 -152 -155 -164 -176 -154 -141 -142 -105 -123 -109 -118 -101 -101 -111 -110 -70 -78 -48 -24 -36
0 0 -167 -108 -46 -103 -74 -108 -183 -193 -166 -105 -126 -104 -103 -109 -162 -162 -133 -133 -148 -165 -134 -132 -115 -126 -160 -139 -89 -96 -76 -28
0 0 0 -104 -48 -17 -101 -43 -107 -161 -170 -125 -113 -136 -128 -146 -176 -176 -173 -168 -177 -178 -154 -124 -123 -148 -168 -164 -122 -116 -53 -65
0 0 0 -92 -233 -253 -27 -12 -28 -72 -104 -28 -122 -97 -110 -100 -82 -103 -140 -159 -196 -184 -180 -132 -138 -107 -180 -158 -166 -110 -119 -94
0 0 0 0 -37 -180 -255 -249 -27 -25 -16 -49 -71 -35 -38 -32 -33 -38 -50 -99 -160 -169 -170 -170 -138 -135 -125 -178 -160 -167 -143 -113
0 0 0 0 0 0 -137 -214 -279 -302 -238 -25 -35 -38 -35 -41 -39 -30 -27 -35 -59 -160 -182 -156 -146 -174 -111 -118 -107 -159 -153 -124
0 0 0 0 0 0 -246 0 -26 -231 -221 -292 -323 -28 -36 -65 -90 -68 -89 -17 -36 -65 -118 -131 -111 -98 -116 -71 -114 -106 -126 -94
0 0 0 0 0 0 0 0 0 0 -328 -407 -330 -360 -139 -64 -72 -65 -102 -53 -39 -35 -28 -73 -90 -87 -83 -79 -68 -94 -81 -91
0 0 0 0 0 0 -256 -355 -131 0 0 -204 -113 -231 -272 -97 -39 -62 -61 -77 -36 -37 -36 -58 -72 -60 -63 -72 -62 -51 -50 -68
0 0 0 0 0 0 0 -139 -196 -132 -107 -233 -270 -21 -36 -46 -39 -52 -45 -87 -91 -19 -27 -38 -61 -57 -51 -54 -40 -24 -21 -37
0 0 0 0 0 0 0 0 -7 -190 -128 -98 -73 -96 -2 -15 -18 -14 -12 -15 -24 -7 -15 -36 -48 -40 -21 -32 -39 -31 -29 -41
0 0 0 0 0 0 0 0 0 0 0 -51 -81 -14 -41 -64 -85 -53 -12 -10 -14 -10 -4 -14 -17 -28 -55 -5 -12 -11 -20 -55
0 0 0 0 0 0 0 0 0 0 0 0 -58 -113 -14 -9 -24 -36 -11 -6 -6 -10 -14 -13 -30 -24 -22 -11 0 -2 -2 -2
0 0 0 0 0 0 0 0 0 0 0 0 0 0 -129 -173 -15 -14 -27 -11 -6 -11 0 -21 -23 -44 -43 -25 -6 -1 -5 -4
0 0 0 0 0 0 0 0 0 0 0 0 0 0 0 0 0 0 -77 -45 -33 -24 -19 -16 -22 -26 -27 -20 -34 -17 -2 0
0 0 0 0 0 0 0 0 0 0 0 0 0 0 0 0 0 0 0 -127 -95 -53 -34 -42 -37 -30 -23 -42 -18 -22 0 0
0 0 0 0 0 0 0 0 0 0 0 0 0 0 0 0 0 0 0 0 -131 -69 -61 -24 -34 -49 -53 -61 -26 -21 -1 0
Wind_Speed
nan nan nan 39 34 54 49 45 48 47 36 26 26 30 30 32 27 24 27 25 25 22 26 22 26 24 25 27 26 26 27 28
nan nan nan 44 41 50 56 47 49 50 43 30 26 24 29 31 31 32 28 26 26 26 23 26 25 28 29 29 31 31 30 35
nan nan nan 49 47 44 58 52 47 51 47 35 26 26 26 30 31 31 33 35 36 31 28 26 28 30 32 33 35 35 34 38
nan nan nan 56 52 59 54 56 49 50 49 42 33 31 31 30 28 27 30 33 37 37 35 33 33 33 34 36 37 38 38 39
nan nan nan 58 52 57 53 53 51 47 49 43 35 33 32 29 27 30 31 33 35 38 37 38 38 40 38 40 41 39 41 39
nan nan nan nan nan 57 55 54 54 47 40 41 41 34 33 34 34 33 33 34 34 36 38 40 40 42 41 43 44 43 41 39
nan nan nan nan nan nan 56 54 54 50 47 37 41 39 35 36 38 37 38 36 35 35 38 40 41 41 44 42 44 44 40 40
nan nan nan nan nan nan nan 50 nan nan nan 49 40 40 40 36 41 40 38 40 42 34 35 39 40 40 41 45 47 43 44 44
nan nan nan nan nan nan nan nan nan nan 57 nan nan 47 45 44 41 39 40 45 38 42 37 37 40 43 45 46 44 45 46 45
nan nan nan nan nan nan nan nan nan nan nan nan 54 nan 52 47 45 45 41 42 43 44 46 40 43 43 45 44 48 45 46 46
nan nan nan nan nan nan nan nan nan nan nan nan 60 58 57 54 57 54 52 46 50 48 46 43 37 41 44 43 46 46 48 48
nan nan nan nan nan nan nan nan nan 60 62 nan nan 63 57 53 54 53 51 52 49 56 51 47 48 40 42 46 45 48 51 54
nan nan nan nan nan nan nan nan nan nan nan 62 63 64 68 62 58 52 55 53 51 50 55 53 46 42 42 43 52 57 57 59
nan nan nan nan nan nan nan nan nan nan nan nan 73 71 69 67 60 59 57 59 57 60 59 50 46 43 50 53 58 60 59 61
nan nan nan nan nan nan nan nan nan nan nan nan nan 81 81 72 67 60 59 60 61 63 57 55 51 51 54 58 61 62 62 60
nan nan nan nan nan nan nan nan nan nan nan nan nan nan nan nan 69 69 69 68 67 64 61 59 59 57 60 61 61 62 65 67
nan nan nan nan nan nan nan nan nan nan nan nan nan nan nan nan nan nan 60 59 58 59 60 60 60 59 64 64 63 64 66 69
nan nan nan nan nan nan nan nan nan nan nan nan nan nan nan nan nan nan nan 60 63 59 58 60 56 57 58 61 63 64 66 67
nan nan nan nan nan nan nan nan nan nan nan nan nan nan nan nan nan nan nan nan nan 62 62 62 61 60 60 61 61 64 64 65
Wind_Direction
nan nan nan 261 257 274 280 274 279 284 280 279 276 277 283 292 284 284 288 291 302 297 291 287 293 289 291 292 294 294 292 292
nan nan nan 252 260 261 276 273 274 274 279 281 277 277 280 283 289 293 293 299 305 303 293 300 295 301 296 295 293 296 295 292
nan nan nan 253 256 256 271 272 267 271 273 276 267 265 263 272 277 288 299 303 305 304 307 302 303 295 299 298 301 294 294 295
nan nan nan 258 249 246 262 273 273 269 274 267 262 251 252 258 275 280 286 291 295 303 307 303 298 298 300 301 300 307 303 298
nan nan nan 256 255 252 250 267 269 264 270 271 267 265 261 259 263 265 273 284 291 296 299 302 300 300 304 303 301 302 299 308
nan nan nan nan nan 254 258 259 257 266 265 265 265 262 259 260 258 264 269 275 285 290 293 294 298 292 299 301 302 301 302 304
nan nan nan nan nan nan 243 255 261 263 258 261 269 268 266 263 265 266 263 264 273 282 287 290 291 292 294 298 301 300 300 304
nan nan nan nan nan nan nan 249 nan nan nan 260 263 266 267 266 260 262 270 267 269 276 284 283 286 298 295 297 294 296 302 305
nan nan nan nan nan nan nan nan nan nan 256 nan nan 262 261 263 266 263 264 267 264 274 281 283 291 288 287 289 290 289 301 305
nan nan nan nan nan nan nan nan nan nan nan nan 259 nan 263 271 268 266 265 265 271 273 282 291 289 290 289 288 284 293 297 303
nan nan nan nan nan nan nan nan nan nan nan nan 248 259 258 263 265 268 266 269 271 274 280 282 283 283 286 281 282 289 299 302
nan nan nan nan nan nan nan nan nan 243 243 nan nan 245 248 256 261 264 266 264 266 271 275 279 278 279 279 275 281 289 299 294
nan nan nan nan nan nan nan nan nan nan nan 244 244 246 255 257 260 264 265 262 261 261 267 277 270 272 276 280 280 290 292 294
nan nan nan nan nan nan nan nan nan nan nan nan 246 249 252 251 250 251 260 262 263 265 271 274 275 276 273 278 284 287 285 287
nan nan nan nan nan nan nan nan nan nan nan nan nan 244 245 246 243 249 251 259 262 267 270 270 269 269 271 275 278 281 280 279
nan nan nan nan nan nan nan nan nan nan nan nan nan nan nan nan 244 244 248 252 260 263 264 266 269 269 268 271 275 279 280 279
nan nan nan nan nan nan nan nan nan nan nan nan nan nan nan nan nan nan 244 247 252 258 261 264 266 265 273 274 275 274 277 280
nan nan nan nan nan nan nan nan nan nan nan nan nan nan nan nan nan nan nan 250 250 252 259 264 267 266 274 276 275 274 276 277
nan nan nan nan nan nan nan nan nan nan nan nan nan nan nan nan nan nan nan nan nan 255 256 254 260 263 273 275 273 270 271 274